When you browse on this site, cookies collect data to enhance your experience and personalize the content and advertising you see.
Visit our Privacy Policy to learn more. By continuing to use the site, you agree to this use of cookies and data.
  • In Hungary
  • List of Countries
  • For 7 days
  • Water Temperature
  • Satellite Maps
  • Weather Map
  • News
  • Weather Widgets
  • user-avatar
    Login

    Hourly Weather Lauf an der Pegnitz

    Today, 17 February, Sunday

    Time Temperature Precipitation Wind Pressure Humidity
    00:00 +4°C° 0 mm 1 mps 736 mmHg 88%
    01:00 +3°C° 0 mm 1 mps 736 mmHg 86%
    02:00 +3°C° 0 mm 1 mps 736 mmHg 86%
    03:00 +3°C° 0 mm 1 mps 735 mmHg 86%
    04:00 +3°C° 0 mm 1 mps 735 mmHg 86%
    05:00 +2°C° 0 mm 1 mps 735 mmHg 86%
    06:00 +2°C° 0 mm 1 mps 735 mmHg 86%
    07:00 +1°C° 0 mm 1 mps 735 mmHg 82%
    08:00 +3°C° 0 mm 1 mps 735 mmHg 77%
    09:00 +3°C° 0 mm 2 mps 735 mmHg 71%
    10:00 +5°C° 0 mm 2 mps 735 mmHg 65%
    11:00 +7°C° 0 mm 2 mps 735 mmHg 62%
    12:00 +8°C° 0 mm 2 mps 735 mmHg 59%
    13:00 +10°C° 0 mm 2 mps 735 mmHg 56%
    14:00 +10°C° 0 mm 2 mps 734 mmHg 58%
    15:00 +11°C° 0 mm 1 mps 734 mmHg 61%
    16:00 +11°C° 0 mm 1 mps 733 mmHg 63%
    17:00 +9°C° 0 mm 1 mps 733 mmHg 68%
    18:00 +7°C° 0 mm 1 mps 733 mmHg 73%
    19:00 +5°C° 0 mm 2 mps 733 mmHg 79%
    20:00 +5°C° 0 mm 1 mps 733 mmHg 79%
    21:00 +5°C° 0 mm 1 mps 733 mmHg 79%
    22:00 +4°C° 0 mm 1 mps 733 mmHg 80%
    23:00 +4°C° 0 mm 1 mps 733 mmHg 81%

    Tomorrow, 18 February, Monday

    Time Temperature Precipitation Wind Pressure Humidity
    00:00 +3°C° 0 mm 1 mps 733 mmHg 81%
    01:00 +3°C° 0 mm 1 mps 733 mmHg 82%
    02:00 +3°C° 0 mm 1 mps 733 mmHg 83%
    03:00 +3°C° 0 mm 1 mps 733 mmHg 84%
    04:00 +2°C° 0 mm 1 mps 733 mmHg 85%
    05:00 +2°C° 0 mm 1 mps 733 mmHg 85%
    06:00 +2°C° 0 mm 1 mps 732 mmHg 85%
    07:00 +2°C° 0 mm 1 mps 732 mmHg 85%
    08:00 +3°C° 0 mm 1 mps 732 mmHg 78%
    09:00 +5°C° 0 mm 1 mps 733 mmHg 72%
    10:00 +7°C° 0 mm 1 mps 733 mmHg 65%
    11:00 +8°C° 0 mm 1 mps 732 mmHg 59%
    12:00 +10°C° 0 mm 1 mps 732 mmHg 54%
    13:00 +12°C° 0 mm 1 mps 732 mmHg 48%
    14:00 +12°C° 0 mm 1 mps 731 mmHg 51%
    15:00 +12°C° 0 mm 1 mps 731 mmHg 54%
    16:00 +12°C° 0 mm 1 mps 731 mmHg 56%
    17:00 +10°C° 0 mm 1 mps 731 mmHg 62%
    18:00 +8°C° 0 mm 1 mps 731 mmHg 68%
    19:00 +6°C° 0 mm 1 mps 731 mmHg 73%
    20:00 +5°C° 0 mm 1 mps 731 mmHg 75%
    21:00 +5°C° 0 mm 1 mps 731 mmHg 76%
    22:00 +4°C° 0 mm 1 mps 731 mmHg 78%
    23:00 +4°C° 0 mm 1 mps 731 mmHg 78%

    Day after tomorrow, 19 February, Tuesday

    Time Temperature Precipitation Wind Pressure Humidity
    00:00 +4°C° 0 mm 1 mps 731 mmHg 78%
    01:00 +3°C° 0 mm 1 mps 731 mmHg 78%
    02:00 +3°C° 0 mm 1 mps 731 mmHg 79%
    03:00 +3°C° 0 mm 1 mps 730 mmHg 79%
    04:00 +3°C° 0 mm 1 mps 730 mmHg 80%
    05:00 +3°C° 0 mm 1 mps 730 mmHg 82%
    06:00 +3°C° 0 mm 1 mps 730 mmHg 84%
    07:00 +3°C° 0 mm 1 mps 731 mmHg 86%
    08:00 +3°C° 0 mm 2 mps 731 mmHg 79%
    09:00 +5°C° 0 mm 2 mps 731 mmHg 73%
    10:00 +5°C° 0 mm 3 mps 731 mmHg 67%
    11:00 +8°C° 0 mm 3 mps 731 mmHg 67%
    12:00 +9°C° 0 mm 3 mps 731 mmHg 66%
    13:00 +10°C° 0 mm 4 mps 731 mmHg 66%
    14:00 +8°C° 0.1 mm 4 mps 731 mmHg 72%
    15:00 +8°C° 0.1 mm 3 mps 731 mmHg 77%
    16:00 +8°C° 0.1 mm 3 mps 731 mmHg 83%
    17:00 +7°C° 0 mm 3 mps 731 mmHg 86%
    18:00 +6°C° 0 mm 2 mps 731 mmHg 89%
    19:00 +6°C° 0 mm 2 mps 732 mmHg 92%
    20:00 +6°C° 0 mm 1 mps 732 mmHg 93%
    21:00 +5°C° 0 mm 1 mps 732 mmHg 94%
    22:00 +5°C° 0 mm 1 mps 733 mmHg 95%
    23:00 +4°C° 0 mm 1 mps 733 mmHg 95%

    20 February, Wednesday

    Time Temperature Precipitation Wind Pressure Humidity
    00:00 +4°C° 0 mm 1 mps 733 mmHg 96%
    01:00 +4°C° 0 mm 1 mps 733 mmHg 97%
    02:00 +3°C° 0 mm 1 mps 733 mmHg 97%
    03:00 +3°C° 0 mm 1 mps 733 mmHg 97%
    04:00 +3°C° 0 mm 1 mps 733 mmHg 97%
    05:00 +3°C° 0 mm 1 mps 733 mmHg 97%
    06:00 +3°C° 0 mm 1 mps 733 mmHg 97%
    07:00 +3°C° 0 mm 1 mps 733 mmHg 97%
    08:00 +4°C° 0 mm 1 mps 734 mmHg 92%
    09:00 +5°C° 0 mm 1 mps 734 mmHg 88%
    10:00 +6°C° 0 mm 1 mps 734 mmHg 83%
    11:00 +7°C° 0 mm 1 mps 734 mmHg 77%
    12:00 +7°C° 0 mm 2 mps 734 mmHg 71%
    13:00 +9°C° 0 mm 2 mps 734 mmHg 65%
    14:00 +8°C° 0 mm 2 mps 734 mmHg 66%
    15:00 +8°C° 0 mm 2 mps 734 mmHg 67%
    16:00 +8°C° 0 mm 2 mps 734 mmHg 69%
    17:00 +8°C° 0 mm 1 mps 734 mmHg 75%
    18:00 +7°C° 0 mm 1 mps 734 mmHg 81%
    19:00 +4°C° 0 mm 0 mps 735 mmHg 87%
    20:00 +4°C° 0 mm 0 mps 735 mmHg 88%
    21:00 +5°C° 0 mm 1 mps 735 mmHg 89%
    22:00 +4°C° 0 mm 1 mps 736 mmHg 90%
    23:00 +4°C° 0 mm 1 mps 736 mmHg 91%

    21 February, Thursday

    Time Temperature Precipitation Wind Pressure Humidity
    00:00 +4°C° 0 mm 1 mps 736 mmHg 92%
    01:00 +3°C° 0 mm 1 mps 736 mmHg 92%
    02:00 +3°C° 0 mm 1 mps 736 mmHg 92%
    03:00 +3°C° 0 mm 1 mps 736 mmHg 92%
    04:00 +3°C° 0 mm 1 mps 735 mmHg 93%
    05:00 +3°C° 0 mm 1 mps 736 mmHg 92%
    06:00 +3°C° 0 mm 1 mps 736 mmHg 92%
    07:00 +3°C° 0 mm 1 mps 736 mmHg 92%
    08:00 +4°C° 0 mm 1 mps 736 mmHg 87%
    09:00 +6°C° 0 mm 1 mps 737 mmHg 82%
    10:00 +7°C° 0 mm 1 mps 737 mmHg 77%
    11:00 +8°C° 0 mm 1 mps 737 mmHg 73%
    12:00 +8°C° 0 mm 2 mps 737 mmHg 69%
    13:00 +10°C° 0 mm 2 mps 737 mmHg 65%
    14:00 +10°C° 0 mm 2 mps 736 mmHg 65%
    15:00 +10°C° 0 mm 2 mps 736 mmHg 66%
    16:00 +10°C° 0 mm 2 mps 736 mmHg 67%
    17:00 +8°C° 0 mm 2 mps 736 mmHg 73%
    18:00 +8°C° 0 mm 1 mps 736 mmHg 79%
    19:00 +7°C° 0 mm 1 mps 736 mmHg 85%
    20:00 +7°C° 0 mm 1 mps 736 mmHg 87%
    21:00 +6°C° 0 mm 2 mps 736 mmHg 89%
    22:00 +5°C° 0 mm 2 mps 736 mmHg 90%
    23:00 +6°C° 0.8 mm 2 mps 737 mmHg 92%

    22 February, Friday

    Time Temperature Precipitation Wind Pressure Humidity
    00:00 +6°C° 0.8 mm 2 mps 737 mmHg 94%
    01:00 +5°C° 0.8 mm 3 mps 737 mmHg 95%
    02:00 +6°C° 0.1 mm 2 mps 737 mmHg 96%
    03:00 +6°C° 0.1 mm 2 mps 737 mmHg 97%
    04:00 +6°C° 0.1 mm 2 mps 737 mmHg 97%
    05:00 +6°C° 0 mm 1 mps 738 mmHg 97%
    06:00 +6°C° 0 mm 1 mps 738 mmHg 97%
    07:00 +6°C° 0 mm 1 mps 738 mmHg 97%
    08:00 +6°C° 0 mm 1 mps 739 mmHg 93%
    09:00 +7°C° 0 mm 1 mps 739 mmHg 89%
    10:00 +6°C° 0 mm 2 mps 740 mmHg 84%
    11:00 +8°C° 0 mm 1 mps 740 mmHg 81%
    12:00 +8°C° 0 mm 1 mps 740 mmHg 78%
    13:00 +8°C° 0 mm 1 mps 740 mmHg 75%
    14:00 +8°C° 0 mm 1 mps 741 mmHg 76%
    15:00 +8°C° 0 mm 1 mps 741 mmHg 78%
    16:00 +8°C° 0 mm 1 mps 741 mmHg 79%
    17:00 +8°C° 0 mm 1 mps 741 mmHg 82%
    18:00 +6°C° 0 mm 2 mps 742 mmHg 85%
    19:00 +5°C° 0 mm 2 mps 742 mmHg 87%
    20:00 +5°C° 0 mm 2 mps 742 mmHg 89%
    21:00 +4°C° 0 mm 2 mps 743 mmHg 90%
    22:00 +3°C° 0 mm 2 mps 743 mmHg 91%
    23:00 +3°C° 0 mm 2 mps 743 mmHg 92%
    Show more